ARCTURUS

Last updated on Sun Apr 12 2026 00:02:56 GMT+0000 (Coordinated Universal Time)

1 56371U 23060B 26101.46374175 -.00000060 00000+0 00000+0 0 9995 2 56371 2.6045 80.7715 0001286 332.8241 25.5477 1.00273239 10782
UTC large
Height (km)
Speed (km/s)
/
Latitude / Longitude
Inclination (degrees)
Orbital Period (minutes)
Azimuth
Elevation
Range (km)
Doppler Factor

Next 0 passes for location: London (51.5072 / 0.1276)

Sorry there are no passes over London.
ARCTURUS